Temperature
15 15 15 15 15 15 15 15 15 15 15 15 15 15 15 15 15 15 15 15 15 15 15 15 15 15 15 15 15 15 15 15 15 15 15 15 15 15 15 15 15 15 15
15 15 15 15 15 15 15 15 15 15 15 15 15 15 15 15 15 15 14 15 15 15 15 15 15 15 15 15 15 15 15 15 15 15 15 15 15 15 15 15 15 15 15
15 15 15 15 15 15 15 15 15 14 14 14 14 14 14 14 14 14 14 14 14 15 15 15 14 14 14 15 14 14 14 14 14 14 14 14 15 15 15 15 15 15 15
15 15 15 15 14 14 14 14 14 14 14 14 14 14 14 14 14 14 14 14 14 14 14 14 14 14 14 14 14 14 14 14 14 14 14 14 14 14 14 14 14 14 14
15 15 15 14 14 14 14 14 14 14 14 14 14 14 14 14 14 14 14 14 14 14 14 14 14 14 14 14 14 14 14 14 14 14 14 14 14 14 14 14 14 14 14
15 15 14 14 14 14 14 14 14 14 14 14 14 14 13 13 14 13 13 13 13 13 13 13 13 13 14 14 14 14 14 14 14 14 14 14 14 14 14 14 14 14 14
15 14 14 14 14 14 14 14 13 13 13 13 14 13 13 13 13 13 13 13 13 13 13 13 13 13 13 13 13 13 13 13 13 13 13 13 13 13 13 13 13 13 13
14 14 14 14 14 14 14 13 13 13 13 13 13 14 14 14 13 13 13 13 13 13 13 13 13 13 13 13 13 13 13 13 13 13 13 13 13 13 13 13 13 13 13
14 14 14 14 14 14 14 13 13 13 13 13 13 13 14 14 13 13 12 13 13 13 13 13 12 12 12 12 12 12 13 13 13 12 13 13 13 13 13 13 13 13 13
14 14 14 14 14 14 14 13 13 13 13 13 13 13 13 13 13 13 12 12 12 12 12 12 12 12 12 12 12 12 12 12 12 12 12 12 12 12 12 12 12 12 12
14 13 13 13 13 13 13 13 13 13 13 13 13 13 13 13 13 13 13 12 12 12 12 12 12 12 12 12 12 12 12 12 12 12 12 12 12 12 12 12 12 12 12
13 13 13 13 13 13 13 13 13 13 13 13 13 13 13 13 13 13 13 12 12 12 11 12 12 12 12 11 12 12 12 12 12 12 12 12 12 12 12 11 12 12 12
13 13 13 13 13 13 13 13 13 13 12 12 12 12 12 12 12 12 12 12 12 12 11 11 11 11 11 11 11 11 11 12 12 12 12 12 12 12 11 11 11 11 11
13 13 13 13 13 13 13 13 13 12 12 12 12 12 12 12 12 12 12 12 12 12 11 11 11 11 11 11 11 11 11 11 11 11 11 11 11 11 11 11 11 11 11
13 13 13 12 12 12 12 12 12 12 12 12 12 12 11 12 11 11 11 11 12 12 12 11 11 10 10 10 11 10 10 11 11 11 11 11 11 11 11 11 11 11 11
13 12 12 12 12 12 12 12 12 12 12 12 12 11 11 11 11 11 11 11 11 11 11 11 10 10 10 10 10 10 10 10 10 10 11 11 11 11 11 11 11 11 11
12 12 12 12 12 12 12 12 11 11 11 11 11 11 11 11 11 11 11 11 10 10 10 10 10 10 10 10 10 10 10 10 10 10 10 10 10 10 10 10 10 10 10
12 12 12 12 12 11 11 11 11 11 11 11 11 11 11 11 11 10 10 10 10 10 10 10 10 10 9 9 10 10 9 9 9 10 10 10 10 10 10 10 10 10 10
12 12 12 12 11 11 11 11 11 11 10 10 10 10 10 10 10 10 10 10 10 10 10 10 10 9 9 9 9 9 9 9 9 9 9 9 9 9 9 9 9 9 9
12 12 12 11 11 11 11 11 11 10 10 10 10 10 10 10 10 10 10 10 9 9 9 9 9 9 9 9 9 9 9 9 9 9 9 9 9 9 9 9 9 9 9
11 11 11 11 11 11 11 11 11 10 10 10 10 10 10 10 10 10 10 9 9 9 9 9 9 9 9 9 9 9 8 8 8 8 8 8 8 8 9 9 9 9 9
11 11 11 11 11 11 11 11 11 10 10 10 10 10 10 10 10 10 10 10 10 9 9 9 9 9 9 9 9 8 8 8 8 8 8 8 8 8 8 8 8 9 8
11 11 11 11 11 10 11 10 10 10 10 10 10 9 9 10 10 9 9 9 9 9 9 9 9 9 9 8 8 8 8 8 8 7 7 7 7 7 8 8 8 8 8
11 11 10 10 10 10 10 10 10 10 9 9 9 9 9 9 9 9 9 9 9 9 9 9 9 8 8 8 8 8 8 7 7 7 7 7 7 7 7 7 8 8 8
10 10 10 10 10 10 10 10 10 9 9 9 9 9 9 9 9 9 9 9 8 8 8 9 8 8 8 8 8 7 7 7 7 7 7 7 7 6 7 7 7 7 7
10 10 10 10 10 10 10 10 9 9 9 9 9 9 9 9 9 9 8 8 8 8 8 8 8 8 8 8 8 7 7 7 7 7 7 7 6 6 6 7 7 7 7
Wind_Speed
3 3 4 4 4 4 3 3 3 4 4 4 4 4 4 5 4 5 6 10 10 9 8 8 8 7 7 7 7 7 7 6 5 5 5 6 6 5 4 4 4 3 3
3 3 4 3 3 3 3 3 4 3 3 3 4 5 5 4 5 5 5 7 9 9 8 8 8 8 7 7 7 7 7 7 7 7 6 6 5 5 5 5 4 4 3
3 3 3 3 3 3 3 3 4 3 3 3 4 5 4 4 4 5 5 5 6 8 9 9 9 9 9 8 8 8 7 7 6 6 6 6 5 5 5 5 5 4 4
3 3 2 2 2 3 2 2 2 3 3 3 3 3 3 4 4 4 5 5 5 5 8 9 9 9 9 9 8 8 8 8 7 7 6 6 6 5 4 4 4 4 4
3 3 2 2 2 2 2 2 2 2 3 3 3 3 3 3 3 4 4 5 5 5 5 8 8 9 9 9 8 8 7 7 7 7 6 6 6 5 4 4 3 3 3
2 3 2 2 2 2 1 2 2 3 3 3 3 3 3 3 3 3 3 3 4 5 5 5 4 6 8 8 8 7 7 6 6 6 6 5 5 5 4 4 3 2 2
2 2 1 2 2 2 2 2 2 3 2 2 1 2 2 2 3 2 2 2 3 4 4 4 3 3 4 6 7 7 7 6 5 5 5 5 4 4 4 4 4 3 3
2 2 2 2 2 2 2 2 2 1 1 0 0 1 1 1 1 2 2 1 2 3 3 3 3 3 3 3 6 6 6 6 5 5 5 5 4 4 4 4 4 3 3
2 1 1 1 1 1 1 1 2 2 1 0 1 2 1 0 1 1 1 1 2 1 2 2 3 3 3 3 4 6 6 6 6 5 5 4 4 4 4 3 3 3 3
1 1 1 1 2 1 1 1 1 1 1 1 0 2 2 0 1 1 1 1 1 1 1 1 2 2 2 3 5 6 6 6 6 6 5 5 5 4 4 4 3 3 3
1 1 1 1 1 1 1 1 1 1 1 1 1 0 0 0 2 1 1 1 1 0 1 1 1 1 2 2 3 5 6 5 6 6 6 5 5 4 4 4 3 3 3
1 1 1 1 1 1 1 1 1 1 1 1 1 1 1 1 1 1 2 2 1 0 0 1 0 1 1 1 2 5 4 4 5 5 5 5 5 5 4 4 3 3 4
1 1 1 1 1 1 1 1 1 1 2 2 2 1 1 1 1 2 2 1 1 1 1 1 1 1 0 1 2 3 2 3 4 5 5 5 5 5 4 4 4 4 4
2 1 1 1 1 1 2 2 2 2 2 2 2 2 1 1 1 1 2 2 2 2 1 1 1 0 0 0 3 1 1 3 3 4 4 4 4 4 4 4 5 4 4
2 2 2 2 2 2 2 2 2 2 2 2 2 2 2 1 1 1 2 2 3 2 2 1 1 0 0 0 1 2 2 4 3 3 4 4 4 4 4 4 5 5 4
3 3 3 2 2 2 2 2 2 2 2 2 2 3 2 2 1 2 2 2 3 3 2 1 1 1 0 1 1 2 2 2 1 2 3 4 4 4 4 4 4 5 4
3 3 3 3 2 2 2 3 3 3 3 3 3 3 3 3 2 2 2 2 2 2 2 2 1 1 1 1 1 2 2 2 1 2 3 3 4 4 4 4 4 5 5
3 3 3 3 2 2 2 3 3 3 3 3 4 3 4 3 4 3 2 3 2 3 3 2 2 2 2 2 2 2 2 2 2 2 1 2 3 3 3 3 3 4 4
3 3 3 3 3 3 3 3 3 4 4 4 4 4 4 4 5 4 4 3 3 2 2 3 2 1 2 1 2 2 2 2 2 0 1 1 2 2 3 3 3 3 3
3 4 4 3 3 3 3 3 3 4 4 4 4 4 4 4 5 4 4 4 3 3 3 3 2 2 2 2 2 2 2 2 2 2 2 2 1 1 2 2 2 3 3
4 4 4 3 3 3 2 2 3 3 4 4 4 3 3 2 2 2 3 4 4 3 3 3 3 3 2 2 2 2 2 2 2 2 2 2 2 2 2 2 2 2 2
3 3 4 3 3 2 1 1 3 3 4 4 4 3 3 3 3 3 3 3 4 5 4 4 4 4 3 2 2 3 3 3 2 2 3 3 2 2 2 2 1 1 2
3 3 3 3 3 2 3 2 3 3 3 3 3 3 3 2 3 4 4 6 4 4 4 5 5 4 4 3 3 4 4 4 4 2 3 3 3 3 2 1 1 2 3
3 3 3 4 4 3 3 3 4 4 3 3 3 3 3 3 2 3 3 4 4 4 4 5 5 4 4 3 4 4 4 4 3 2 3 4 3 3 3 3 1 2 3
4 4 4 4 3 3 3 3 4 3 3 3 3 2 2 2 1 2 4 4 4 3 3 2 3 3 3 2 3 3 3 3 4 3 3 3 3 4 4 4 2 3 4
4 4 4 4 4 3 3 3 4 3 3 3 2 3 2 1 1 2 4 4 4 4 3 3 3 3 3 3 4 5 4 4 4 3 2 3 3 3 3 3 2 3 4
Wind_Direction
75 77 77 75 68 72 73 65 64 66 61 58 54 55 58 63 68 76 75 63 57 62 71 75 80 84 90 88 84 85 81 77 73 81 76 73 67 65 66 63 59 62 61
78 77 79 76 69 65 64 68 70 71 67 63 57 56 55 59 66 70 73 83 70 60 66 70 75 80 83 84 85 84 82 78 71 70 69 69 65 61 62 62 58 56 56
80 80 73 76 74 73 72 69 75 74 72 75 69 59 58 53 59 64 64 64 78 80 71 68 70 72 72 74 76 78 76 75 70 65 65 64 62 60 61 58 53 47 45
78 75 70 70 71 70 71 77 76 83 78 73 71 63 65 64 57 59 64 68 63 74 86 75 68 67 66 66 68 71 70 68 65 62 61 60 59 58 58 57 51 42 40
84 84 68 67 80 83 77 80 81 83 84 75 71 65 59 62 62 62 64 65 68 66 75 88 81 67 61 58 59 59 62 62 61 59 58 55 52 49 47 47 43 39 39
87 91 91 84 79 86 84 90 99 97 88 90 80 69 62 67 68 61 58 65 62 62 61 67 80 87 74 59 55 52 53 56 55 54 53 49 47 44 42 38 37 34 28
99 95 85 85 80 90 99 109 111 117 106 101 104 92 85 72 59 76 62 55 62 56 55 62 60 61 88 86 60 51 48 49 48 46 45 41 36 35 36 34 30 26 21
91 103 107 106 109 105 110 118 127 132 116 113 294 243 181 135 73 75 89 70 62 67 47 45 53 58 49 67 77 62 43 35 35 34 33 33 32 26 32 30 25 23 22
91 97 123 122 127 132 127 154 173 182 175 137 344 303 282 210 93 113 88 89 71 57 44 31 33 51 61 59 64 72 46 29 24 22 17 20 20 18 15 14 19 18 18
107 100 118 143 140 119 145 175 172 197 203 186 73 336 333 6 241 180 160 113 75 51 31 20 15 30 51 56 57 52 46 31 22 15 9 15 13 10 10 9 12 9 6
140 137 134 156 149 142 159 170 163 214 205 205 178 135 18 290 269 252 214 196 168 64 23 6 44 35 38 49 47 53 44 26 17 11 5 3 2 360 4 1 1 360 358
169 168 159 171 177 178 191 201 189 190 215 191 203 217 234 250 272 269 245 224 228 128 40 29 70 80 49 39 49 58 41 24 16 9 3 2 4 3 2 358 352 350 350
184 188 185 191 187 204 208 207 223 220 210 208 217 230 248 291 279 274 262 257 252 231 221 197 141 111 80 39 58 71 51 35 18 8 4 4 6 2 359 360 348 339 336
203 193 199 196 203 204 216 213 231 223 219 211 219 222 228 249 263 264 266 263 250 238 232 244 157 107 73 13 48 6 56 69 27 7 356 355 359 359 359 353 344 336 330
199 198 204 208 209 213 223 219 224 225 222 224 227 222 220 205 236 249 260 263 269 260 255 263 254 219 279 10 23 305 352 61 37 13 358 351 356 0 357 356 349 343 332
200 202 207 212 214 222 223 216 228 233 217 213 235 232 218 223 228 238 244 256 272 278 272 280 268 244 273 283 331 308 344 65 37 18 7 5 4 2 358 360 358 358 358
202 208 206 206 210 220 224 213 223 224 227 222 222 229 226 223 225 230 234 239 250 257 248 257 266 249 234 256 287 289 301 293 43 58 23 12 7 2 1 2 3 3 12
202 210 207 206 211 224 234 228 222 229 229 233 230 232 233 222 227 234 228 232 238 246 246 246 248 244 258 262 278 281 289 296 312 78 20 3 357 350 345 351 357 357 358
202 208 214 213 216 224 232 237 234 235 232 234 234 235 239 230 228 228 225 230 237 240 244 240 250 254 260 261 263 275 280 300 302 280 258 292 328 336 335 336 344 346 343
206 210 216 218 218 224 232 239 240 240 233 233 235 240 247 239 241 237 229 228 228 229 232 233 237 237 242 254 250 259 265 275 287 288 311 312 302 298 315 324 334 332 326
214 213 211 215 216 220 229 246 244 242 237 234 230 231 249 269 308 268 252 238 228 225 223 230 237 240 234 237 247 248 262 275 279 284 289 293 290 287 274 271 294 325 317
214 210 210 210 212 220 149 256 265 246 241 238 236 231 232 235 218 216 242 257 257 239 232 234 241 247 251 246 251 252 253 260 275 287 286 291 294 289 296 302 355 323 307
211 206 216 220 219 203 158 206 255 254 249 247 244 241 236 233 237 231 210 210 227 244 258 256 255 258 262 256 248 251 254 261 279 293 278 279 279 286 296 330 14 310 302
216 214 221 227 224 204 172 211 235 241 248 242 240 243 239 227 242 255 231 227 232 229 234 246 259 271 275 272 258 258 263 266 273 265 267 277 275 282 291 282 231 261 276
223 227 229 229 226 209 176 204 223 228 238 235 228 230 241 234 106 270 235 226 226 225 198 224 294 305 330 304 273 253 249 250 264 261 258 272 279 286 281 270 248 229 254
224 227 227 229 230 232 175 189 226 224 230 232 226 216 197 243 175 250 242 233 234 235 233 225 236 235 244 221 222 241 244 252 262 263 246 262 272 280 274 263 267 270 258
Height
1536 1536 1536 1535 1535 1535 1535 1535 1535 1535 1535 1535 1535 1535 1535 1535 1535 1535 1534 1533 1533 1533 1533 1533 1532 1532 1532 1532 1532 1531 1531 1531 1532 1531 1532 1531 1531 1531 1531 1531 1531 1531 1532
1537 1537 1537 1536 1536 1536 1535 1536 1536 1535 1535 1535 1535 1535 1535 1535 1536 1536 1535 1535 1534 1533 1533 1533 1533 1533 1533 1532 1532 1532 1532 1532 1532 1532 1532 1532 1531 1531 1531 1531 1531 1531 1531
1538 1537 1537 1537 1537 1536 1536 1536 1536 1536 1536 1536 1536 1536 1535 1535 1536 1536 1536 1535 1535 1534 1534 1533 1534 1533 1533 1533 1533 1533 1533 1532 1532 1532 1532 1532 1531 1531 1531 1531 1531 1530 1530
1538 1538 1537 1537 1537 1537 1537 1536 1537 1537 1536 1536 1536 1536 1536 1535 1535 1536 1536 1535 1535 1534 1534 1534 1534 1534 1534 1533 1533 1533 1533 1533 1532 1532 1532 1532 1531 1531 1530 1530 1530 1530 1530
1538 1538 1537 1537 1537 1537 1537 1537 1537 1537 1537 1537 1536 1536 1536 1536 1535 1535 1536 1536 1535 1535 1535 1535 1534 1534 1534 1534 1534 1533 1533 1533 1532 1532 1532 1531 1531 1530 1530 1529 1529 1529 1529
1538 1538 1537 1537 1537 1537 1537 1537 1537 1537 1537 1537 1537 1536 1536 1536 1536 1536 1536 1536 1536 1536 1536 1535 1535 1535 1535 1534 1534 1533 1533 1532 1532 1531 1531 1531 1530 1529 1529 1528 1528 1528 1528
1538 1538 1538 1537 1537 1537 1536 1537 1537 1537 1537 1537 1537 1537 1537 1536 1536 1535 1536 1536 1536 1536 1536 1536 1536 1536 1535 1534 1534 1533 1533 1532 1531 1531 1530 1530 1529 1528 1527 1527 1526 1526 1526
1538 1537 1537 1537 1536 1536 1536 1536 1536 1536 1536 1537 1537 1537 1537 1538 1536 1536 1536 1535 1536 1536 1536 1536 1536 1536 1535 1535 1534 1533 1532 1532 1531 1530 1530 1529 1528 1527 1526 1526 1525 1525 1525
1537 1537 1536 1536 1536 1536 1535 1535 1535 1535 1536 1536 1536 1537 1537 1536 1537 1537 1536 1536 1535 1535 1535 1535 1535 1535 1535 1534 1534 1532 1532 1531 1530 1530 1529 1528 1527 1526 1525 1524 1524 1523 1523
1536 1536 1535 1535 1535 1535 1535 1535 1535 1535 1535 1535 1535 1535 1536 1536 1536 1536 1536 1535 1535 1534 1534 1534 1534 1534 1534 1533 1532 1532 1531 1530 1529 1529 1528 1527 1526 1525 1524 1523 1523 1522 1522
1535 1534 1534 1534 1534 1534 1534 1534 1534 1534 1534 1534 1534 1534 1534 1534 1535 1535 1535 1535 1535 1534 1533 1533 1533 1533 1532 1532 1531 1531 1530 1529 1528 1527 1527 1526 1525 1524 1523 1522 1522 1521 1521
1533 1533 1533 1533 1533 1533 1533 1533 1533 1533 1533 1533 1533 1534 1534 1534 1534 1534 1534 1533 1533 1533 1532 1532 1532 1531 1531 1531 1531 1530 1529 1528 1527 1526 1525 1524 1523 1523 1522 1521 1521 1520 1519
1532 1532 1532 1532 1531 1531 1531 1531 1531 1532 1532 1532 1532 1532 1533 1533 1532 1533 1533 1532 1532 1532 1532 1531 1531 1530 1530 1530 1529 1528 1528 1527 1526 1525 1524 1523 1522 1521 1521 1520 1519 1519 1518
1531 1530 1530 1530 1530 1530 1530 1530 1530 1530 1530 1530 1530 1531 1531 1531 1531 1531 1531 1531 1531 1531 1531 1530 1529 1529 1529 1528 1528 1527 1526 1526 1525 1524 1523 1522 1521 1520 1519 1518 1518 1517 1516
1529 1529 1529 1529 1529 1528 1528 1528 1528 1528 1528 1528 1529 1529 1529 1529 1529 1529 1529 1529 1531 1529 1529 1529 1528 1527 1527 1527 1526 1526 1526 1525 1524 1523 1522 1521 1520 1519 1518 1517 1516 1514 1512
1527 1527 1527 1527 1527 1527 1527 1526 1527 1526 1527 1527 1527 1527 1527 1528 1528 1527 1527 1527 1528 1528 1528 1527 1527 1526 1525 1525 1524 1524 1524 1523 1522 1522 1521 1519 1518 1517 1516 1515 1514 1511 1508
1525 1525 1525 1525 1525 1525 1525 1525 1525 1525 1525 1525 1525 1526 1526 1526 1526 1526 1526 1526 1526 1526 1526 1526 1525 1525 1524 1523 1523 1523 1522 1522 1521 1520 1519 1518 1517 1516 1515 1514 1512 1510 1508
1523 1523 1523 1523 1523 1523 1523 1523 1523 1523 1523 1523 1524 1524 1524 1524 1524 1524 1524 1524 1524 1524 1524 1524 1524 1523 1522 1522 1521 1521 1521 1520 1520 1518 1517 1517 1516 1515 1513 1513 1511 1510 1509
1521 1521 1521 1521 1521 1521 1521 1521 1521 1521 1521 1521 1522 1522 1522 1522 1522 1522 1522 1522 1522 1522 1522 1522 1522 1521 1521 1520 1520 1519 1519 1519 1518 1517 1516 1515 1514 1513 1512 1511 1510 1510 1509
1519 1519 1519 1519 1519 1519 1519 1519 1519 1519 1519 1519 1519 1519 1520 1520 1520 1520 1520 1520 1520 1520 1520 1520 1520 1520 1519 1518 1518 1518 1518 1517 1517 1516 1515 1513 1513 1512 1511 1510 1509 1508 1508
1516 1516 1517 1517 1517 1517 1517 1517 1517 1517 1517 1517 1516 1516 1517 1517 1517 1517 1517 1517 1518 1518 1518 1518 1518 1518 1518 1517 1517 1516 1516 1515 1515 1514 1513 1512 1511 1510 1509 1509 1508 1507 1506
1513 1513 1514 1514 1514 1514 1514 1514 1514 1514 1514 1514 1514 1514 1514 1514 1514 1514 1514 1514 1515 1515 1516 1516 1516 1516 1516 1515 1515 1515 1515 1514 1513 1513 1511 1511 1510 1509 1508 1507 1506 1505 1504
1510 1510 1511 1511 1511 1511 1511 1512 1511 1511 1512 1512 1512 1511 1511 1511 1511 1511 1511 1511 1512 1512 1513 1514 1514 1514 1514 1513 1513 1513 1512 1512 1511 1510 1509 1509 1508 1507 1506 1505 1504 1503 1502
1507 1507 1508 1508 1508 1508 1509 1509 1509 1509 1509 1509 1509 1509 1509 1508 1508 1508 1509 1509 1510 1510 1510 1510 1511 1511 1511 1511 1510 1510 1510 1510 1509 1508 1508 1507 1506 1505 1504 1503 1502 1501 1500
1504 1504 1505 1505 1505 1505 1506 1506 1506 1506 1506 1506 1506 1506 1506 1506 1505 1505 1506 1506 1507 1507 1507 1507 1507 1507 1507 1507 1507 1507 1507 1507 1506 1506 1505 1505 1504 1502 1501 1500 1500 1499 1497
1502 1502 1502 1502 1502 1503 1503 1503 1503 1503 1503 1504 1503 1503 1503 1503 1503 1503 1503 1504 1504 1504 1504 1504 1504 1504 1504 1504 1504 1504 1504 1505 1504 1504 1502 1502 1501 1500 1499 1498 1497 1496 1495